Vertical_Velocity
4 -0 -0 19 -2 1 -3 -0 -2 -1 2 -1 0 1 3 -1 -1 -1 -0 2 2 -0 -2 1 1 -1 -0 -0 -3 0 -1 -2
2 0 7 12 5 7 -5 -7 -4 -2 -4 -9 -5 -11 -0 -0 1 0 2 -2 -2 1 2 1 1 -0 3 -2 2 -1 -4 -0
-6 -5 -1 8 -6 -1 2 -0 -2 -3 -0 -1 -4 -1 -4 2 4 -0 -1 6 5 -0 1 -1 2 3 -4 2 0 -5 2 2
1 3 6 16 9 -2 -2 -5 -2 4 7 1 4 5 3 -2 -2 4 0 -1 2 1 2 2 2 4 1 -1 1 5 -2 -3
1 -3 7 7 5 7 10 9 8 2 2 1 -4 -6 -11 -4 -6 5 1 -0 0 -1 2 9 1 1 1 11 -0 1 -1 0
1 -1 -0 2 9 9 -8 -2 3 2 4 4 2 1 4 4 2 -8 -1 -1 3 4 12 6 9 0 5 2 -4 -0 0 -3
3 -0 -4 -6 -10 -6 9 17 1 -4 -0 4 3 3 3 -2 1 -2 -2 0 5 7 8 9 3 4 -8 0 0 3 2 -0
-1 -2 2 -2 -4 -2 -1 5 4 -1 1 -0 2 1 -1 2 4 3 -2 -1 -2 4 3 -0 -2 1 1 5 1 3 -0 1
-3 -4 -6 -0 -7 -5 -3 -0 -5 -1 -7 -5 -2 2 -3 1 7 2 1 -1 2 1 3 3 7 4 4 1 -1 3 2 3
-0 -3 -6 -7 -9 -4 -1 -1 1 -2 4 4 3 7 1 3 2 -1 -1 3 3 5 3 8 7 -0 3 1 1 -0 -2 1
2 2 -1 -6 -5 -4 -2 0 2 4 1 2 0 -0 -1 0 3 3 -2 3 4 3 -0 1 2 1 1 1 1 3 -4 4
1 -0 -3 -4 -6 -10 -6 -2 -4 -6 -7 6 -1 -0 -0 -1 2 2 4 4 5 -7 2 -1 3 5 5 4 -2 -1 -5 -14
4 1 0 -4 -4 -2 -6 -2 -3 -5 -1 -2 -5 -5 3 -2 -5 2 8 -0 -3 2 1 4 5 4 0 -1 6 -4 -4 -1
-4 -1 -4 -2 1 -3 -7 -8 -11 -5 2 1 -2 -4 -0 9 -1 -1 -2 9 8 5 6 2 1 0 4 2 -3 -10 -4 -3
-2 2 -3 1 1 -2 2 -0 -2 1 4 -1 -6 -4 -7 -2 8 6 6 1 -0 -0 3 3 4 -2 -1 -6 -14 -6 2 3
5 2 -1 -4 2 6 7 7 4 5 3 1 -0 1 1 5 5 3 3 0 2 3 -1 2 -2 4 -10 -8 -15 1 4 -1
-4 6 1 2 1 4 11 4 3 6 4 -1 2 5 1 -1 3 1 1 3 4 4 8 2 1 1 20 -34 -1 1 -5 5
-2 -3 2 4 -6 -5 1 1 2 1 -1 -3 3 6 1 2 5 3 3 0 2 -1 -2 1 1 7 -36 0 1 -4 10 2
-1 4 2 -0 2 2 -0 -1 -2 -2 -3 0 4 4 3 1 3 4 4 5 4 1 -3 -1 9 -26 -4 3 -1 5 2 2
Height
1477 1479 1482 1484 1484 1487 1491 1494 1498 1501 1506 1509 1512 1515 1518 1519 1521 1522 1525 1528 1531 1532 1534 1536 1538 1539 1539 1540 1541 1540 1541 1541
1471 1474 1477 1479 1481 1482 1483 1488 1491 1495 1499 1502 1504 1506 1509 1513 1516 1519 1520 1523 1525 1526 1528 1531 1532 1533 1535 1536 1536 1537 1537 1535
1466 1468 1471 1472 1473 1476 1477 1481 1485 1488 1491 1495 1497 1500 1504 1508 1510 1513 1514 1516 1519 1522 1524 1526 1529 1529 1531 1531 1531 1531 1532 1532
1459 1462 1465 1468 1469 1470 1473 1474 1479 1482 1487 1491 1493 1496 1499 1502 1503 1505 1507 1510 1512 1515 1518 1521 1522 1523 1525 1525 1527 1529 1527 1527
1454 1457 1461 1465 1467 1469 1472 1474 1476 1480 1483 1484 1485 1486 1488 1489 1492 1497 1501 1504 1506 1509 1511 1513 1514 1518 1519 1520 1522 1523 1522 1524
1451 1455 1460 1465 1469 1472 1472 1474 1476 1478 1478 1478 1479 1480 1483 1486 1490 1492 1495 1498 1499 1503 1504 1506 1508 1511 1514 1515 1517 1518 1517 1518
1450 1454 1457 1460 1464 1467 1470 1470 1470 1473 1475 1475 1476 1477 1479 1480 1483 1484 1487 1491 1494 1497 1499 1501 1503 1506 1509 1512 1513 1513 1513 1513
1449 1452 1454 1457 1460 1462 1464 1466 1466 1467 1470 1471 1472 1473 1474 1475 1478 1480 1482 1485 1489 1493 1493 1494 1496 1500 1504 1507 1509 1509 1509 1507
1447 1450 1454 1456 1458 1460 1462 1463 1464 1465 1465 1466 1467 1468 1469 1472 1473 1475 1476 1478 1482 1484 1485 1488 1492 1496 1499 1500 1501 1503 1503 1504
1445 1446 1449 1451 1455 1457 1459 1460 1459 1459 1459 1459 1460 1462 1464 1466 1468 1471 1471 1473 1477 1479 1483 1485 1491 1493 1495 1496 1495 1496 1496 1497
1444 1444 1445 1448 1451 1453 1454 1455 1456 1457 1457 1457 1457 1457 1457 1458 1461 1463 1464 1468 1470 1474 1479 1484 1486 1488 1490 1490 1491 1491 1490 1488
1441 1442 1443 1443 1446 1449 1450 1451 1451 1452 1452 1451 1450 1451 1452 1453 1455 1456 1458 1461 1463 1468 1474 1479 1481 1484 1485 1485 1485 1483 1480 1478
1437 1438 1438 1439 1439 1440 1441 1442 1443 1444 1444 1446 1446 1447 1449 1450 1452 1453 1454 1456 1460 1464 1468 1471 1474 1476 1478 1480 1479 1477 1475 1474
1434 1433 1433 1432 1432 1432 1432 1434 1435 1437 1437 1438 1439 1441 1443 1445 1447 1449 1453 1457 1459 1462 1465 1469 1471 1473 1474 1472 1469 1469 1471 1469
1425 1425 1425 1424 1423 1423 1425 1425 1426 1429 1430 1430 1432 1435 1437 1439 1442 1445 1449 1452 1455 1458 1462 1465 1467 1467 1466 1465 1464 1467 1465 1463
1418 1416 1415 1415 1414 1414 1415 1418 1422 1423 1425 1425 1426 1428 1430 1432 1435 1439 1443 1447 1451 1454 1456 1458 1461 1461 1458 1458 1463 1461 1459 1456
1409 1408 1405 1403 1405 1406 1410 1414 1417 1419 1421 1422 1422 1422 1424 1427 1429 1433 1437 1441 1444 1447 1449 1453 1454 1453 1451 1455 1456 1455 1453 1451
1402 1401 1400 1397 1398 1400 1404 1408 1410 1411 1414 1416 1417 1417 1418 1419 1422 1425 1428 1431 1436 1438 1443 1446 1446 1446 1447 1449 1449 1446 1444 1440
1393 1393 1393 1394 1394 1395 1399 1402 1403 1405 1406 1408 1408 1409 1410 1413 1416 1420 1423 1426 1429 1434 1438 1440 1439 1442 1444 1442 1441 1440 1437 1433